[[{"header":{"parameterUnit":"m.s-1","parameterCategory":1,"la1":30.2992,"la2":30.254,"lo1":-89.0895,"lo2":-89.0443,"dy":0.0025,"dx":0.0025,"nx":19,"ny":19,"refTime":"2026-04-19T03:00:00:Z","depth":0,"parameterNumber":2,"parameterNumberName":"U-component_of_WINDS"},"data":[0,0,0,-1.3767,-1.377,-1.3939,-1.394,-1.4146,-1.4148,0,0,0,0,0,0,0,0,0,0,0,-1.3711,-1.3712,-1.3766,-1.3771,-1.3939,-1.394,-1.4145,-1.4148,0,0,0,0,0,0,0,0,0,0,0,-1.371,-1.3712,-1.3713,-1.3771,-1.3939,-1.394,-1.4145,-1.4021,0,0,0,0,0,0,0,0,0,0,-1.3859,-1.3802,-1.3711,-1.3713,-1.3772,-1.3939,-1.394,-1.4015,-1.4029,-1.4065,0,-1.4096,0,-1.4125,-1.4161,-1.4161,0,0,0,-1.3775,-1.3791,-1.3841,-1.3714,-1.3774,-1.3939,-1.3864,-1.4023,-1.4038,-1.4083,-1.4099,-1.4107,-1.4128,-1.4162,-1.4163,-1.4355,-1.4356,0,0,-1.3766,-1.3738,-1.3831,-1.3851,-1.3824,-1.3859,-1.387,-1.4033,-1.4048,-1.4099,-1.4112,-1.4131,-1.4163,-1.4165,-1.4354,-1.4355,0,0,0,-1.3736,-1.3732,-1.3779,-1.3842,-1.3873,-1.3864,-1.3876,-1.4041,-1.4058,-1.4114,-1.4134,-1.4164,-1.4167,-1.4354,-1.4355,-1.4362,0,0,0,-1.3731,-1.3714,-1.3774,-1.3759,-1.387,-1.3959,-1.388,-1.4047,-1.4066,-1.4133,-1.4164,-1.4169,-1.4353,-1.4354,-1.436,-1.4371,0,0,0,-1.3702,-1.3711,-1.3733,-1.3757,-1.3829,-1.3957,-1.3984,-1.4052,-1.4078,-1.4162,-1.4169,-1.4353,-1.4354,-1.4359,-1.4368,-1.4414,0,0,0,-1.3664,-1.3738,-1.3733,-1.3823,-1.3827,-1.396,-1.3984,-1.4084,-1.4156,-1.4165,-1.4353,-1.4355,-1.4358,-1.4367,-1.4412,-1.4447,-1.4459,0,0,-1.3742,-1.3746,-1.3802,-1.3802,-1.3929,-1.3936,-1.4064,-1.4157,-1.419,-1.4298,-1.4303,-1.4361,-1.4368,-1.4413,-1.4534,-1.4543,0,0,0,-1.3817,-1.3857,-1.3896,-1.3964,-1.4035,-1.4097,-1.4173,-1.4207,-1.43,-1.424,-1.439,-1.4395,-1.4422,-1.4441,-1.4449,-1.4474,-1.4362,-1.4361,-1.4361,-1.389,-1.3928,-1.4022,-1.4079,-1.4144,-1.422,-1.4276,-1.4335,-1.4354,-1.4389,-1.4422,-1.449,-1.4511,-1.4517,-1.4543,-1.4443,-1.4443,-1.4443,-1.4443,-1.401,-1.4072,-1.4094,-1.4194,-1.4233,-1.4317,-1.4392,-1.4403,-1.4487,-1.4469,-1.4495,-1.4474,-1.4526,-1.4551,-1.4444,-1.4443,-1.4443,-1.4443,-1.4443,-1.4063,-1.4099,-1.4138,-1.4238,-1.431,-1.4366,-1.4445,-1.4477,-1.4508,-1.4534,-1.4572,-1.4572,-1.4577,-1.4549,-1.455,-1.455,-1.455,-1.455,-1.4551,-1.4103,-1.4146,-1.4209,-1.429,-1.4337,-1.4402,-1.4477,-1.4524,-1.4585,-1.4602,-1.4602,-1.4618,-1.4524,-1.45,-1.4554,-1.4554,-1.4553,-1.4553,-1.4553,-1.4212,-1.4192,-1.4289,-1.4335,-1.4432,-1.4502,-1.4541,-1.4633,-1.4676,-1.4714,-1.4724,-1.4648,-1.4655,-1.4649,-1.463,-1.4715,-1.4715,-1.4715,-1.4715,-1.4257,-1.4263,-1.4369,-1.4441,-1.4515,-1.456,-1.4668,-1.4726,-1.4784,-1.4813,-1.4805,-1.4781,-1.4773,-1.4785,-1.4776,-1.4759,-1.4875,-1.4875,-1.4875,-1.4327,-1.4341,-1.4427,-1.4483,-1.456,-1.4626,-1.4728,-1.4809,-1.487,-1.4882,-1.4836,-1.4829,-1.4792,-1.4777,-1.479,-1.4775,-1.4744,0,0]},{"header":{"parameterUnit":"m.s-1","parameterCategory":1,"la1":30.2992,"la2":30.254,"lo1":-89.0895,"lo2":-89.0443,"dy":0.0025,"dx":0.0025,"nx":19,"ny":19,"refTime":"2026-04-19T03:00:00:Z","depth":0,"parameterNumber":3,"parameterNumberName":"V-component_of_WINDS"},"data":[0,0,0,-10.0601,-10.0608,-10.09,-10.0901,-10.1276,-10.128,0,0,0,0,0,0,0,0,0,0,0,-10.0521,-10.0524,-10.0601,-10.0608,-10.09,-10.0901,-10.1276,-10.128,0,0,0,0,0,0,0,0,0,0,0,-10.052,-10.0523,-10.0527,-10.061,-10.09,-10.0901,-10.1275,-10.1053,0,0,0,0,0,0,0,0,0,0,-10.0768,-10.0701,-10.0522,-10.0527,-10.0611,-10.09,-10.0902,-10.1042,-10.1067,-10.1146,0,-10.1224,0,-10.1258,-10.1305,-10.1307,0,0,0,-10.0602,-10.0681,-10.0755,-10.0527,-10.0614,-10.0899,-10.0767,-10.1056,-10.1083,-10.1179,-10.1229,-10.1243,-10.1265,-10.1308,-10.131,-10.1804,-10.1807,0,0,-10.0586,-10.0575,-10.0736,-10.0773,-10.0734,-10.0757,-10.0776,-10.1072,-10.1124,-10.123,-10.1251,-10.1271,-10.1311,-10.1313,-10.1802,-10.1805,0,0,0,-10.0544,-10.0564,-10.0631,-10.0758,-10.0811,-10.0766,-10.0787,-10.111,-10.1133,-10.1255,-10.1275,-10.1313,-10.1317,-10.1799,-10.1803,-10.1924,0,0,0,-10.0534,-10.054,-10.0624,-10.062,-10.0806,-10.0966,-10.0819,-10.1113,-10.1147,-10.1273,-10.1313,-10.1321,-10.1796,-10.1801,-10.1914,-10.1982,0,0,0,-10.0499,-10.0535,-10.0581,-10.0619,-10.0745,-10.0961,-10.1001,-10.112,-10.1159,-10.1307,-10.1322,-10.1794,-10.18,-10.1906,-10.1968,-10.211,0,0,0,-10.0458,-10.068,-10.0582,-10.0838,-10.0743,-10.1035,-10.0999,-10.1216,-10.1357,-10.1315,-10.1797,-10.1803,-10.1903,-10.1959,-10.2101,-10.2228,-10.228,0,0,-10.0732,-10.0713,-10.0864,-10.0785,-10.1093,-10.0991,-10.1316,-10.1452,-10.1472,-10.1691,-10.1703,-10.1918,-10.1967,-10.2108,-10.2576,-10.2618,0,0,0,-10.0947,-10.1055,-10.1139,-10.1277,-10.139,-10.1492,-10.1581,-10.1631,-10.1819,-10.1585,-10.2007,-10.2037,-10.212,-10.2181,-10.2216,-10.2288,-10.183,-10.183,-10.1829,-10.1317,-10.1337,-10.1588,-10.1644,-10.1777,-10.1869,-10.1977,-10.2059,-10.2036,-10.2136,-10.2201,-10.2483,-10.2554,-10.2581,-10.2656,-10.2269,-10.227,-10.227,-10.227,-10.172,-10.1877,-10.1846,-10.2079,-10.2097,-10.229,-10.2386,-10.2364,-10.2544,-10.2435,-10.2509,-10.2388,-10.2626,-10.2692,-10.228,-10.2278,-10.2277,-10.2276,-10.2275,-10.1965,-10.2043,-10.2105,-10.2308,-10.246,-10.2506,-10.2683,-10.2691,-10.2699,-10.2773,-10.2842,-10.284,-10.2839,-10.2805,-10.2807,-10.2808,-10.2808,-10.2809,-10.281,-10.2194,-10.226,-10.2411,-10.2553,-10.2643,-10.2762,-10.2857,-10.2944,-10.3042,-10.3034,-10.3034,-10.3001,-10.2647,-10.2558,-10.2825,-10.2822,-10.282,-10.2819,-10.2818,-10.2595,-10.2507,-10.274,-10.2831,-10.2998,-10.3149,-10.3159,-10.3336,-10.3408,-10.3495,-10.3447,-10.3184,-10.3163,-10.3135,-10.3061,-10.3443,-10.3443,-10.3443,-10.3443,-10.2801,-10.2793,-10.3035,-10.318,-10.3323,-10.3357,-10.3615,-10.3691,-10.3754,-10.3799,-10.3745,-10.3648,-10.3619,-10.3615,-10.3577,-10.3508,-10.3995,-10.3995,-10.3996,-10.3049,-10.3056,-10.3277,-10.3344,-10.3476,-10.3587,-10.3831,-10.3995,-10.4047,-10.4018,-10.3835,-10.3812,-10.3655,-10.3603,-10.3569,-10.3509,-10.3383,0,0]}]]